Aérodrome :
LOGIN :

S'inscrire | Disclaimer

   EN    FR    IT 

 










Légende :    VFR   VFR Marginal   IFR   IFR Intensif   IFR Très Intensif
Visi : 
Plafond : 
>= 8 km
>= 3000ft
5 à 8 km
1000 à 3000 ft
1500m à 5 km
500 à 1000 ft
800 à 1500m
200 à 500 ft
< 800m
< 200 ft
Symboles :   Orages  Brouillard  Fortes neiges  Fortes précipitations  Vent > 20 kt
SIGMETs :   Divers  Orages  Givrage  Turbulence  Onde Orograph.  Cendres Volcan.







- Altitude de l'aérodrome : 1674 ft
- Code IATA : BRN


LSZB - Bern Belp

DERNIER METAR :
  • 171220Z VRB05KT CAVOK 24/16 Q1017 NOSIG

METARs EXPIRÉS :
  • 171150Z 27005KT 210V340 9999 FEW030 23/14 Q1018 NOSIG
  • 171120Z 31004KT 220V020 9999 FEW030 23/15 Q1018 NOSIG
  • 171050Z 32005KT 280V030 9999 FEW030 22/14 Q1018 NOSIG
  • 171020Z 36005KT 290V070 9999 FEW030 22/14 Q1018 NOSIG
  • 170950Z VRB04KT 9999 FEW030 22/14 Q1018 NOSIG

TAF TAF LSZB
Valide du 17 à 12h jusqu'au 17 à 21h UTC


171125Z 1712/1721 32005KT 9999 FEW030
BECMG 1716/1719 CAVOK
ATIS : +41 22 417 40 76
Pas de NOTAMs connus pour ce terrain.



MET'MAP, la Météo Aéronautique d'un coup d'oeil ! - Copyright ORBIFLY Décembre 2007 - Disclaimer

ORBIFLY MET'MAP TEAM :

Programmation & Développement : Alexandra Zaïnal
Conception & Développement : Baudouin d'Aumeries
Co-Programmation & Développement : Marc-Olivier Méhu
Soutien technique & logistique : Manuel Goepfert

Contact : metmap@orbifly.com




SOURCES & CREDITS :

   NOAA